RH
7 7 8 8 9 11 13 19 25 30 33 36 38 39 40 40 40 41 42 43 45 47 50 51 50 47 42 34 27 23 22 27 33 39 43 41 38 34 31 29 27 25 20 17 22 35 53 60 62 61 59 60 60 61 63 67 69 70 71 71 71 72 72 73 73 73 73 68 66 66 70 70 68 66 66 69 65 62 69 73 73 72 68 57 39 21
7 7 8 9 10 12 15 21 27 33 37 38 39 39 39 38 38 39 40 42 44 47 49 49 49 46 42 34 27 23 21 25 30 36 41 41 38 35 32 31 29 26 22 17 20 30 47 57 61 60 58 58 59 60 61 67 69 69 70 71 72 72 73 73 72 71 73 72 70 69 72 73 71 69 71 74 70 66 67 72 74 74 72 62 43 24
7 8 8 9 10 13 17 23 29 35 39 40 39 39 38 37 36 37 39 41 44 46 48 48 47 44 40 33 27 23 21 24 28 34 39 39 38 36 34 32 31 28 24 18 19 26 41 54 60 60 56 56 56 58 60 66 68 69 70 72 72 72 72 73 73 73 73 72 72 72 73 74 73 73 76 70 68 67 67 71 74 75 72 63 47 29
8 8 9 10 11 15 20 26 32 37 40 40 39 38 36 36 35 36 38 40 43 45 46 46 44 41 37 31 26 23 21 23 27 32 36 38 38 36 35 34 33 30 26 20 19 24 37 51 57 58 55 53 54 56 59 66 68 69 69 71 72 72 72 73 74 73 73 73 71 71 73 73 73 74 77 73 70 69 69 72 74 74 71 64 50 33
8 9 9 10 12 16 22 29 35 39 41 40 38 36 35 34 34 35 36 39 42 44 45 44 42 38 34 29 25 22 21 23 26 30 34 36 37 37 36 36 35 32 28 23 21 25 35 48 55 56 53 50 51 54 59 66 68 68 68 71 72 72 72 73 73 73 73 74 72 72 74 72 73 74 75 76 75 73 73 75 75 74 71 64 51 35
9 10 10 11 14 18 24 30 36 39 40 39 36 35 33 33 34 35 36 39 41 43 44 43 40 36 31 26 23 21 20 22 25 29 32 34 36 37 38 38 37 34 30 25 23 26 34 46 52 54 50 48 49 52 58 66 68 67 67 71 72 72 72 73 73 73 72 73 73 73 73 72 74 76 75 74 74 74 74 76 74 71 69 63 50 35
9 10 11 12 16 20 27 33 37 39 39 37 35 33 33 33 34 35 37 40 42 43 43 41 38 33 28 25 22 21 20 22 25 27 30 33 35 38 40 41 39 36 32 27 25 26 34 45 51 52 48 45 46 51 58 66 68 68 67 70 72 72 71 72 72 73 72 72 72 73 74 73 73 74 75 75 75 75 73 73 70 68 67 61 48 34
10 10 11 13 17 22 27 34 38 40 40 38 36 34 33 34 35 37 39 41 43 44 44 41 36 31 26 22 20 20 20 22 24 27 29 32 35 39 42 43 42 40 35 29 26 27 34 44 50 51 46 43 44 50 59 65 68 68 65 69 72 72 71 71 72 72 72 72 72 72 72 72 72 72 73 74 74 74 73 73 68 65 67 58 46 33
10 10 11 14 18 23 27 32 36 39 40 39 38 36 35 36 37 38 40 43 45 46 46 42 37 30 25 22 20 20 20 22 24 26 28 31 35 40 44 46 46 43 38 32 27 27 33 43 49 49 44 41 43 48 59 65 68 67 64 68 71 73 71 71 72 72 72 72 72 72 70 73 73 73 73 74 74 73 73 71 67 64 64 54 42 30
10 10 11 14 18 24 28 31 34 37 40 40 39 39 39 40 41 42 43 46 48 50 50 47 42 35 28 24 21 20 20 22 23 25 28 31 36 41 46 49 49 46 42 35 29 27 31 41 47 48 43 40 42 47 58 65 68 68 67 67 70 73 71 71 71 72 72 73 73 73 72 73 73 72 72 73 74 73 71 70 68 64 58 47 37 27
10 10 11 13 17 22 28 32 35 37 39 40 40 41 42 45 48 49 50 51 52 54 54 52 48 42 34 28 23 21 20 21 22 25 27 31 36 42 48 51 51 50 46 39 32 28 28 37 45 47 43 40 41 46 58 64 68 69 68 66 69 73 71 70 71 72 72 73 73 73 73 72 72 72 73 73 74 74 71 73 70 63 53 43 34 27
10 10 11 13 16 21 27 32 36 40 43 45 46 48 49 53 56 58 58 58 58 58 58 55 50 45 39 32 26 22 20 20 22 24 27 32 37 43 49 53 54 53 49 43 35 29 26 33 41 46 43 40 40 45 56 64 67 68 68 66 68 71 71 70 71 72 73 74 74 73 73 72 72 73 74 73 73 74 74 75 72 63 47 40 33 27
10 10 11 13 17 22 29 35 40 44 49 53 56 58 58 60 61 62 62 62 61 60 60 55 49 44 39 34 28 23 20 19 21 24 27 32 39 45 51 55 56 55 52 46 38 31 25 29 36 42 42 39 39 43 55 63 67 68 67 65 67 69 71 68 70 72 73 74 74 74 74 73 72 72 72 72 72 73 74 74 70 61 45 38 32 27
10 11 11 14 18 25 34 42 48 53 57 61 63 64 63 63 64 64 64 63 62 61 59 53 47 41 36 33 28 24 20 19 20 23 27 34 41 48 54 57 58 57 54 49 42 33 25 25 31 37 40 38 38 42 53 63 67 68 67 65 66 68 71 68 69 71 73 73 74 75 74 73 72 72 72 73 73 72 73 70 65 58 48 39 33 29
11 11 12 15 21 30 41 50 56 60 64 66 67 66 65 64 64 64 64 62 61 59 56 50 44 38 33 30 27 23 20 19 20 23 28 35 43 51 57 59 60 58 56 51 44 36 27 23 26 31 37 36 36 40 49 61 67 67 68 65 66 67 70 67 68 70 72 72 73 74 75 74 74 73 73 75 73 71 72 69 66 61 51 39 33 30
12 12 13 17 24 34 45 55 61 64 66 68 68 67 66 64 64 63 63 62 60 57 52 47 41 36 30 27 24 22 19 18 19 23 29 37 46 53 59 61 61 60 57 52 46 38 29 23 22 26 31 33 35 38 45 59 64 66 66 65 65 67 71 68 67 68 70 72 73 74 75 75 74 74 73 73 73 72 72 69 66 60 50 40 34 32
12 13 14 19 26 35 46 57 63 67 68 68 68 67 66 64 64 63 63 62 59 54 48 45 41 37 29 24 20 18 18 18 19 24 30 39 48 55 61 62 62 61 59 54 48 40 31 24 20 21 26 30 32 35 42 54 62 66 66 63 65 69 72 67 65 66 69 70 72 73 74 75 75 74 74 74 73 72 70 69 67 61 51 41 35 33
13 14 15 20 27 37 48 58 65 68 68 67 67 66 65 64 64 64 63 61 57 51 45 42 40 37 30 22 17 15 17 17 20 25 32 41 50 57 61 63 62 61 60 55 49 42 34 26 20 18 21 26 30 33 38 51 60 65 64 60 63 68 72 69 65 62 65 68 70 72 73 74 74 74 75 74 73 72 72 70 68 63 53 43 37 34
14 14 16 21 28 38 50 60 66 68 67 66 65 64 63 63 63 63 63 60 54 48 42 40 37 34 27 21 16 14 16 17 21 26 33 42 51 58 63 63 62 61 59 56 50 43 35 27 20 17 18 22 27 31 35 46 57 63 62 56 62 70 71 71 66 61 60 66 69 70 72 73 73 74 74 73 72 72 72 70 68 62 53 43 38 35
14 15 16 22 29 38 50 60 65 67 66 65 65 64 63 63 63 63 62 57 50 43 38 37 34 30 24 18 15 14 16 18 22 27 35 44 53 60 64 63 62 60 59 56 51 44 36 28 21 17 15 19 24 29 33 42 53 60 60 57 62 69 71 71 68 63 57 60 65 68 71 72 73 73 73 73 72 71 72 70 66 60 51 42 37 35
15 15 17 23 30 39 49 58 64 66 65 65 65 65 64 63 62 62 60 55 49 42 37 36 33 28 20 17 14 14 16 19 23 29 36 45 54 60 64 62 60 59 58 55 50 44 36 29 22 17 14 16 21 27 32 38 49 58 60 56 61 69 71 71 70 67 61 56 59 65 69 70 71 72 73 73 72 71 72 69 63 56 47 41 37 35
15 15 17 23 31 40 50 58 62 64 64 65 66 66 64 63 62 61 60 56 51 46 42 39 33 26 18 15 14 15 17 20 25 31 38 47 55 61 63 61 60 58 57 55 50 44 37 30 23 18 15 15 18 24 30 35 44 53 56 56 61 68 71 71 71 70 68 57 55 59 65 68 70 71 72 73 72 71 69 66 60 53 43 38 36 36
16 16 17 23 31 40 50 57 61 63 64 66 67 67 64 62 62 62 60 58 54 50 44 37 30 24 18 15 14 16 18 22 27 34 41 49 56 61 63 61 59 57 56 54 50 44 38 31 25 20 16 15 17 21 28 33 40 47 53 55 60 66 69 70 71 71 71 64 57 55 58 64 67 69 71 72 72 70 68 64 58 50 41 36 35 35
16 16 18 23 31 40 50 57 61 63 65 67 67 66 64 62 62 61 61 60 58 53 46 39 32 26 18 14 14 17 20 24 30 36 43 50 56 60 62 60 58 56 54 52 49 44 39 32 26 21 17 15 15 18 25 30 36 42 50 53 60 66 69 70 71 71 71 69 63 56 52 60 65 68 69 71 71 70 68 63 56 48 37 33 33 35
16 17 18 24 32 42 51 58 62 65 66 67 67 66 64 63 62 61 61 61 60 58 51 45 36 26 16 14 16 19 23 27 32 39 45 51 56 60 61 59 56 54 53 51 48 44 40 34 28 22 18 16 15 17 22 28 33 38 45 51 58 64 68 70 70 71 71 71 69 63 54 57 61 65 67 69 70 69 69 64 56 46 35 32 32 35
17 18 20 26 35 44 53 60 64 67 68 68 67 66 64 62 61 61 61 62 62 60 56 49 38 26 16 16 18 21 26 29 35 41 47 52 56 59 59 57 54 52 51 50 47 44 41 35 29 23 19 17 16 16 20 26 31 35 39 48 56 62 67 68 70 70 71 71 71 69 64 60 59 61 65 68 68 69 68 64 56 46 35 31 32 35
18 19 21 27 36 45 54 60 64 67 68 68 67 66 65 63 62 62 62 63 63 62 58 51 38 25 16 17 20 24 27 32 37 43 49 53 56 57 57 54 52 50 49 48 46 44 42 37 31 25 19 17 16 16 18 25 31 34 35 44 52 60 65 67 68 70 71 71 71 71 71 66 61 60 62 66 68 68 68 63 56 47 36 32 32 35
18 19 21 28 36 46 54 60 63 66 68 68 67 67 66 65 64 64 63 64 63 62 59 50 37 24 17 18 22 26 29 34 39 44 50 53 55 55 55 52 50 48 47 46 45 43 42 38 33 26 20 18 16 16 17 24 31 35 35 40 47 55 62 65 67 69 70 71 71 71 72 71 67 62 60 63 66 68 67 62 56 48 39 34 33 35
18 18 21 28 36 45 53 59 63 66 69 69 68 67 67 66 66 65 65 64 63 61 57 46 34 23 18 20 23 27 31 35 40 45 51 52 53 53 52 50 48 46 44 43 42 41 40 38 34 28 22 18 16 15 16 24 31 36 36 37 42 49 57 63 66 68 69 70 71 71 72 72 70 67 63 63 65 67 66 60 54 48 42 36 34 35
18 18 21 28 36 45 53 59 64 68 70 70 70 69 68 67 67 66 65 64 62 59 53 42 30 21 18 21 24 28 32 37 42 47 51 52 52 52 50 47 45 43 42 41 39 38 37 36 33 29 23 19 17 15 14 23 31 37 37 35 37 42 50 58 63 66 68 69 70 71 72 72 72 70 68 65 65 66 65 58 52 47 43 38 36 37
18 18 20 28 37 46 54 61 66 70 72 71 71 70 69 69 68 66 65 63 60 55 47 37 27 20 19 22 26 30 34 38 43 47 51 51 51 50 48 45 43 41 40 38 37 35 35 34 32 29 24 20 17 15 14 22 32 38 37 34 34 37 43 51 59 64 67 69 70 71 72 72 72 72 70 68 66 64 62 55 49 45 42 39 37 38
18 18 21 28 37 47 56 64 69 71 72 71 71 70 70 69 68 66 64 61 57 50 41 31 24 20 20 23 27 31 35 39 43 47 50 50 49 48 45 43 41 39 37 37 35 34 33 32 31 28 25 21 17 15 13 21 32 40 40 35 33 33 37 44 52 60 66 69 70 70 71 72 72 72 72 69 67 63 60 52 46 42 40 38 38 39
18 18 20 28 37 48 58 66 70 71 71 71 71 70 69 68 66 64 61 58 52 43 33 26 22 20 21 25 28 32 36 40 44 47 49 48 47 45 43 40 39 37 35 35 34 33 32 31 29 28 25 22 18 15 13 20 32 42 43 38 35 33 33 37 44 53 62 66 68 69 71 71 71 71 72 70 68 63 58 50 43 38 37 37 38 40
18 18 20 28 38 48 59 66 70 71 71 70 70 69 67 66 63 61 58 53 46 37 27 22 20 21 23 26 30 33 37 40 43 46 47 46 45 43 40 38 36 35 34 33 32 31 30 29 28 27 26 23 19 16 12 19 31 42 46 41 39 37 37 35 37 43 52 60 66 68 70 70 70 70 71 70 68 64 56 48 40 35 34 35 37 40
18 18 20 28 38 48 59 66 70 70 70 69 68 67 65 63 60 56 53 48 40 32 23 20 20 22 25 28 31 34 37 40 43 44 45 44 43 40 38 36 34 33 32 31 30 29 28 28 27 26 26 23 20 17 12 16 29 42 47 43 42 42 45 43 40 38 42 50 59 65 69 69 69 69 69 69 68 63 55 46 38 34 31 33 36 40
18 18 20 27 37 47 58 66 69 69 68 67 66 65 62 57 53 49 46 40 33 26 20 20 21 24 26 29 32 35 37 40 42 43 43 42 40 38 36 34 33 31 30 29 28 27 26 26 26 26 26 24 22 19 14 13 23 37 48 45 43 43 47 50 47 42 36 39 48 58 66 68 68 68 69 68 67 62 52 43 36 32 29 31 35 39
18 18 20 27 36 46 57 64 67 68 66 66 64 61 56 48 43 39 36 32 26 22 19 20 23 25 28 30 33 35 37 39 40 41 41 40 38 36 35 33 31 30 29 28 27 26 25 25 25 25 25 24 23 20 17 12 16 28 43 44 42 40 41 45 47 44 37 34 39 49 58 64 67 67 69 69 67 62 51 41 34 29 27 29 33 38
18 18 21 27 36 46 56 62 65 66 65 64 61 55 46 39 34 31 28 24 21 19 19 22 25 27 29 31 33 35 36 38 39 39 39 38 36 34 33 31 30 28 27 27 26 26 25 24 23 23 24 24 23 21 19 13 13 19 31 37 38 37 36 36 35 34 33 32 35 41 48 57 63 66 68 68 67 61 52 41 33 28 26 28 32 37
18 19 21 28 36 46 55 61 63 64 62 59 53 45 36 31 27 24 21 19 18 19 21 24 26 28 30 31 33 34 35 37 37 37 37 36 35 33 31 30 28 27 26 26 25 25 24 23 23 22 23 24 23 22 20 16 14 14 19 27 31 33 32 31 30 29 29 30 32 35 39 48 55 60 65 67 65 60 51 42 34 28 25 27 31 37
18 19 22 28 37 47 56 61 62 60 56 51 43 35 28 24 21 19 17 17 18 20 23 25 27 28 30 31 32 33 34 35 35 35 35 34 33 32 30 29 28 26 26 25 24 24 24 23 22 22 22 23 23 23 22 19 16 14 11 18 23 26 24 24 25 27 30 31 31 31 32 38 44 50 57 61 61 57 49 41 33 28 24 26 30 36
18 19 22 29 37 46 55 59 58 54 48 41 34 26 19 16 14 14 14 17 19 22 24 25 27 28 29 30 30 31 32 33 33 33 33 32 31 30 29 28 26 26 25 24 23 23 22 22 22 21 22 22 22 23 23 21 18 15 11 12 15 17 18 17 17 20 25 31 32 30 27 30 34 39 44 51 54 53 47 40 33 28 24 25 29 35
18 19 22 29 37 46 54 56 54 48 40 33 25 17 12 11 12 13 16 18 20 22 24 25 26 27 27 28 28 29 29 30 30 30 30 29 29 28 27 26 25 24 24 23 22 22 21 21 21 21 21 21 21 22 22 22 20 18 14 12 11 11 13 13 13 13 15 24 31 34 29 26 26 28 33 39 45 48 47 41 35 29 25 25 29 35
18 19 23 29 37 45 52 54 50 42 33 25 18 12 10 11 13 15 17 19 21 22 23 23 24 24 24 25 25 26 26 26 26 27 27 27 27 26 26 25 24 23 22 22 21 21 20 20 20 20 20 20 20 21 21 21 21 19 17 15 12 10 9 9 9 8 7 14 23 32 34 29 24 23 25 29 35 40 44 42 37 31 26 26 29 34
18 19 22 29 36 44 51 52 45 35 23 18 13 10 9 11 14 16 18 19 20 21 21 22 22 23 23 23 23 24 24 24 24 24 24 24 24 24 24 24 23 22 21 21 20 20 20 19 19 19 19 19 19 20 20 20 21 20 19 17 15 12 10 8 6 5 4 6 13 23 32 31 27 22 21 22 26 32 39 40 38 33 27 26 29 33
18 19 22 29 37 46 54 50 39 27 18 14 11 9 10 12 14 16 18 18 20 21 23 26 28 30 32 32 33 34 35 32 30 28 26 24 23 23 22 22 21 21 20 19 19 19 19 19 18 18 18 18 18 18 19 19 20 20 20 18 17 15 14 11 9 6 5 4 6 12 23 29 28 24 20 19 20 25 32 36 37 35 29 27 29 32
18 19 22 28 37 45 49 42 32 23 17 13 10 9 10 13 15 17 18 21 24 28 34 40 44 48 52 55 56 57 59 59 56 50 43 35 29 25 23 22 21 19 19 18 18 18 18 18 17 17 17 17 17 17 18 18 18 19 19 19 18 17 16 14 12 9 7 5 4 5 11 20 24 23 19 16 17 20 25 31 34 34 30 28 28 31
19 19 21 27 35 42 45 37 28 21 16 13 11 10 11 14 17 19 22 28 35 42 49 54 59 62 66 68 69 70 70 70 69 69 67 60 51 40 32 26 22 19 18 17 17 17 17 16 16 16 16 16 17 17 17 17 18 18 18 19 19 18 17 15 13 12 10 8 6 4 4 12 17 18 15 13 13 16 21 26 30 32 30 27 27 30
19 19 21 26 33 39 41 34 26 20 16 14 13 12 14 17 20 24 29 38 47 54 59 62 66 69 71 72 72 72 72 72 72 72 71 70 68 63 53 41 30 22 17 16 16 16 16 16 16 16 16 16 16 16 16 16 16 17 17 18 18 18 18 17 16 15 13 11 8 6 4 7 10 13 13 12 11 13 17 22 26 28 28 26 27 29
19 18 20 24 30 35 37 31 25 20 17 15 15 15 17 22 26 31 38 47 54 59 64 68 70 72 73 73 73 73 73 72 72 72 72 71 69 67 65 54 41 28 18 16 14 14 15 15 15 15 15 15 15 15 15 15 15 16 16 17 17 18 18 18 17 17 15 13 11 9 6 6 7 10 12 11 10 11 14 18 22 25 26 25 26 28
19 18 18 22 28 33 35 30 25 20 17 16 16 18 20 26 31 37 44 49 53 58 64 69 72 74 74 74 73 73 72 72 72 71 70 68 65 62 59 50 40 29 21 17 14 14 14 14 14 14 14 14 15 15 15 15 15 15 15 15 16 16 17 17 17 17 17 15 13 11 8 7 8 9 11 10 9 9 11 15 19 22 23 24 25 27
19 18 18 21 26 30 33 30 25 21 18 18 18 19 22 27 33 39 43 45 49 54 60 67 71 73 74 74 74 73 72 71 70 69 69 67 64 60 54 45 38 31 25 19 15 13 13 13 13 13 14 14 14 14 14 14 14 14 14 14 15 15 16 16 17 17 17 17 15 13 11 9 9 9 10 9 9 9 10 12 16 19 21 22 23 26
Wind_Speed
71 70 68 67 65 62 60 57 55 55 55 55 56 56 57 57 57 56 56 55 55 55 56 56 57 57 56 55 53 51 48 46 44 43 43 43 43 43 42 40 38 36 36 38 44 53 61 65 66 66 66 67 68 69 69 67 65 64 65 68 71 71 66 56 49 48 53 64 76 84 84 83 86 95 101 79 97 123 117 116 119 123 126 131 134 133
71 70 68 65 63 61 59 56 54 53 54 55 55 56 56 56 56 55 55 55 55 55 55 55 55 55 55 54 53 51 48 46 44 43 42 42 43 43 42 40 38 36 35 37 42 51 59 65 66 66 65 66 67 69 70 68 66 65 66 70 74 74 68 57 49 49 54 61 73 83 85 84 84 89 96 99 107 115 119 123 125 124 123 129 133 134
70 69 67 65 62 59 57 55 54 53 53 54 55 55 55 55 55 54 54 54 54 54 54 54 54 54 53 53 52 50 48 46 44 42 42 41 42 42 41 39 37 35 34 35 40 48 57 63 66 65 65 65 66 68 70 69 68 66 68 72 76 77 72 59 50 49 54 62 71 81 86 86 84 84 90 99 107 113 118 124 125 124 124 128 132 134
69 67 66 63 61 58 55 53 52 52 53 53 54 55 55 55 54 54 53 53 53 54 54 53 53 52 51 51 50 49 48 46 44 42 41 40 40 40 40 38 36 34 33 34 38 46 55 62 65 65 64 64 65 67 70 70 69 68 70 73 78 80 76 63 53 49 53 60 70 80 87 90 89 86 86 96 105 108 107 112 114 118 124 128 132 134
68 66 64 62 59 57 54 53 52 52 52 53 54 54 54 54 54 53 53 53 53 53 53 53 52 51 50 49 49 48 47 45 44 42 40 40 39 39 39 37 35 33 32 32 36 43 53 60 64 64 63 62 63 66 70 71 70 69 71 74 79 81 79 69 58 52 52 57 67 79 87 91 92 90 87 90 99 107 107 109 111 115 122 129 134 134
66 64 62 60 58 55 53 52 52 52 53 54 54 54 54 54 53 53 53 53 53 53 53 52 51 50 48 48 47 46 46 45 43 41 40 39 38 38 37 36 35 32 31 31 34 41 51 58 62 62 61 61 62 65 70 72 71 70 72 75 78 80 80 74 65 57 52 54 63 75 85 89 91 91 89 88 96 106 112 117 118 119 123 130 135 135
65 63 61 59 57 54 52 51 51 52 53 54 55 54 54 54 53 53 53 53 53 53 52 51 50 48 47 46 45 45 45 44 43 41 39 38 37 37 36 35 34 32 30 29 32 39 49 56 60 61 60 59 60 64 70 72 71 71 73 76 77 78 77 76 72 64 55 54 60 71 83 88 90 91 92 94 99 107 116 120 123 125 126 130 135 136
65 63 60 57 56 54 53 51 51 51 53 54 55 55 55 54 53 53 53 53 53 53 52 51 49 47 45 44 44 44 43 43 42 41 39 37 36 35 35 34 33 31 29 28 30 37 47 55 59 60 58 57 59 64 71 73 71 70 75 78 77 75 73 74 75 72 64 59 61 68 79 85 89 91 94 98 102 108 115 120 124 125 127 132 136 137
63 61 59 57 54 53 52 52 52 52 53 54 55 55 55 55 54 54 53 53 53 53 53 52 50 47 45 43 42 42 42 42 41 40 38 37 35 34 34 33 32 31 29 27 29 35 44 53 58 58 57 56 58 63 71 74 71 70 75 79 78 74 70 71 76 77 70 66 64 68 78 84 87 91 96 98 101 105 113 122 126 126 128 133 137 137
63 60 58 56 54 52 51 51 52 53 53 54 54 55 55 55 55 55 54 53 53 53 53 52 50 48 45 43 42 41 41 41 41 39 38 36 34 33 32 32 31 30 29 27 27 32 41 51 57 58 56 55 57 63 72 75 72 71 75 80 80 74 69 70 74 76 72 69 68 70 76 81 84 88 95 97 101 106 111 118 124 127 130 135 138 137
63 61 58 56 54 53 51 51 51 52 53 54 55 56 56 55 56 56 55 55 54 53 53 52 50 48 46 44 43 41 41 40 40 39 37 35 34 32 31 31 30 30 29 27 26 29 38 48 55 57 56 55 57 63 72 76 74 71 75 82 81 76 71 72 74 76 74 72 71 72 75 79 80 83 90 97 103 108 113 117 123 127 130 135 138 136
63 61 59 57 55 53 52 52 52 53 53 54 56 56 57 56 56 56 56 55 54 54 53 51 49 47 46 45 43 41 40 39 38 37 36 34 32 31 30 29 29 29 28 27 26 27 34 44 53 57 56 55 56 63 72 77 75 72 75 82 83 79 75 77 79 79 77 76 75 75 77 79 79 79 84 94 102 109 114 118 124 128 131 134 136 136
64 62 60 57 55 53 52 52 53 53 53 54 55 55 56 56 56 55 55 54 54 53 53 51 48 46 44 43 42 41 40 39 37 36 34 33 31 30 29 28 28 28 28 27 26 26 31 40 50 56 57 55 56 62 72 78 76 73 74 81 85 84 81 83 84 82 80 78 78 78 80 80 80 79 81 89 99 108 114 118 124 128 130 133 135 135
64 62 60 58 55 53 52 51 51 52 52 53 53 54 54 54 54 54 54 54 53 53 52 50 47 45 43 42 41 40 39 38 36 34 32 31 29 28 28 27 27 27 27 27 26 26 28 35 45 53 56 55 55 61 72 79 78 74 74 80 85 86 86 88 88 85 81 80 80 81 81 81 80 79 79 85 94 104 112 118 123 128 131 132 134 133
64 62 60 57 54 52 50 50 50 51 51 52 52 53 54 54 53 53 53 53 53 52 51 49 46 44 42 41 40 39 39 37 35 33 31 29 28 27 27 26 26 26 26 26 26 26 27 32 41 50 55 56 55 59 70 79 79 75 74 79 84 87 88 91 91 88 83 81 81 81 82 81 80 79 78 81 90 100 108 114 120 126 131 133 133 132
63 61 58 55 53 50 49 49 49 50 51 51 52 52 53 53 53 53 52 53 52 52 50 48 45 43 41 40 39 38 37 36 34 32 29 27 26 26 26 25 25 25 26 26 25 25 26 29 36 45 52 55 55 58 68 79 81 77 75 80 83 85 87 92 94 92 86 82 81 81 81 81 80 79 78 78 85 96 106 112 117 124 131 133 133 132
62 59 57 54 51 49 48 48 49 49 50 50 51 52 52 52 52 52 52 52 52 50 48 46 44 42 40 39 38 37 36 35 33 30 28 26 25 24 24 24 24 24 24 25 25 25 25 27 32 40 48 53 54 57 65 77 82 81 79 81 83 83 83 90 95 96 91 86 83 82 82 81 80 79 78 76 78 88 104 111 117 123 130 134 134 131
60 58 55 53 50 49 48 48 48 49 49 50 50 51 51 51 51 51 51 51 50 48 46 44 42 41 40 38 37 36 35 34 32 29 26 25 24 23 23 23 23 23 23 23 24 24 25 26 29 36 44 51 54 56 61 74 83 85 83 83 84 82 81 84 92 97 97 93 88 84 82 81 80 79 78 76 76 81 96 108 117 123 129 133 134 131
59 57 54 52 50 49 47 47 47 48 49 49 50 50 50 51 50 50 50 49 47 45 43 42 41 40 39 38 36 35 33 32 30 28 25 23 22 22 23 23 22 22 22 22 23 23 24 25 27 33 40 48 52 55 59 70 81 86 85 85 85 83 80 79 85 94 100 99 95 90 85 82 79 78 77 77 77 79 88 103 115 123 129 132 132 131
58 56 53 51 50 48 47 47 47 48 48 49 49 50 50 50 49 49 48 47 45 43 41 40 39 39 38 37 36 34 33 31 29 26 24 22 21 21 22 22 22 21 21 21 22 22 23 24 25 30 36 44 50 54 57 66 78 86 87 86 85 84 79 77 79 87 96 101 101 97 91 86 81 78 78 79 80 81 86 99 112 123 130 133 133 131
57 55 53 51 49 48 47 47 47 47 48 48 49 49 49 49 49 48 46 44 43 41 40 39 39 38 38 37 35 34 32 29 27 25 22 21 20 20 21 21 21 20 19 20 21 22 22 23 24 27 33 41 48 53 56 62 74 84 87 87 86 84 79 76 76 81 88 98 103 103 99 92 86 81 79 80 81 84 89 98 110 122 131 134 134 131
56 54 52 50 48 47 46 46 46 46 47 47 48 49 49 49 48 46 45 43 41 40 39 38 38 38 37 36 35 33 30 28 26 23 21 19 19 20 20 20 20 19 18 19 20 21 21 22 23 25 30 38 46 52 55 60 70 80 86 88 87 84 79 76 75 77 81 90 99 104 104 99 93 86 82 81 82 86 91 99 110 121 131 135 134 131
55 53 51 49 48 47 46 46 46 46 46 47 47 48 48 47 47 45 43 41 40 39 38 38 37 37 36 35 33 31 29 27 24 22 20 18 18 18 19 19 19 18 17 18 19 19 20 21 21 23 28 35 43 50 54 59 67 77 85 89 88 84 79 76 75 75 77 82 91 99 105 105 100 93 87 84 83 86 92 100 110 121 131 136 135 131
55 53 51 49 47 46 46 46 46 46 46 46 46 47 47 46 45 44 42 41 39 38 38 37 37 36 35 33 32 30 28 25 23 20 19 17 17 17 18 18 18 17 16 17 18 18 19 19 20 22 25 32 40 48 54 57 64 74 84 89 90 85 80 76 75 75 76 78 83 91 101 106 105 100 93 88 86 87 92 101 110 121 131 136 135 132
54 52 51 48 47 46 46 46 45 45 45 46 46 46 46 46 45 44 42 40 39 38 38 37 36 35 33 32 30 28 26 23 21 19 17 16 16 16 17 17 17 16 15 16 17 17 18 18 19 21 24 30 38 46 53 57 62 71 81 89 91 87 81 77 75 74 75 76 78 83 93 103 107 105 99 94 90 90 93 101 110 121 131 136 136 132
53 51 50 48 47 46 45 45 45 45 45 45 46 46 46 45 44 43 41 39 38 38 38 37 36 34 32 30 28 26 24 22 19 18 16 15 15 15 16 16 15 15 14 15 15 16 17 17 18 20 23 28 36 44 52 56 61 68 78 88 92 90 83 78 75 74 74 75 76 79 85 95 104 108 105 100 95 93 95 102 110 120 130 136 136 132
51 50 48 47 46 45 45 44 44 44 44 45 46 46 45 45 44 42 40 39 38 37 37 37 35 33 31 28 26 25 22 20 18 16 15 14 14 14 14 15 14 13 13 13 14 15 15 16 17 19 22 26 34 43 51 55 60 65 74 85 92 93 87 80 76 74 74 75 75 76 80 86 96 105 108 105 100 98 98 103 110 119 129 135 135 132
50 48 47 45 45 44 44 43 43 43 44 45 45 46 45 44 43 41 40 39 38 37 36 36 35 32 30 27 25 23 21 19 17 15 14 13 13 13 13 13 13 12 12 12 12 13 14 16 17 18 21 25 32 41 49 55 59 64 71 81 90 95 92 84 78 75 75 75 75 76 78 81 89 98 105 107 105 102 101 104 110 118 127 133 134 132
48 47 45 44 43 43 43 43 43 43 44 45 45 45 44 43 42 41 40 39 38 36 35 35 33 31 28 26 24 22 20 18 16 14 13 13 12 12 12 12 12 11 10 11 11 12 13 15 16 17 20 24 30 39 47 54 58 62 67 75 85 94 96 90 83 77 76 76 76 77 78 80 84 90 98 104 105 104 104 106 109 116 124 131 133 131
48 47 45 43 43 42 42 43 43 43 43 44 44 44 43 42 41 40 40 39 37 35 34 33 31 29 27 25 22 20 19 17 15 14 13 12 11 11 11 11 10 10 9 9 10 11 12 14 15 17 19 22 28 36 45 52 57 60 63 69 79 89 96 95 88 81 78 77 77 78 78 80 82 86 92 98 102 104 105 107 110 115 122 128 132 131
48 46 44 43 42 42 42 43 43 42 42 43 43 43 42 41 40 40 40 38 37 35 33 31 30 28 26 23 21 19 18 16 14 13 12 11 10 10 10 10 9 9 8 8 9 10 11 13 15 16 18 21 26 34 43 51 56 58 60 64 71 81 91 96 94 88 81 78 78 78 79 80 81 84 88 93 98 101 105 107 111 115 121 127 130 130
48 46 44 42 42 42 42 42 42 42 42 42 42 42 41 41 40 40 39 38 36 33 31 29 28 26 24 22 20 18 17 15 14 12 11 10 10 10 9 9 8 8 8 8 8 9 10 11 13 15 17 20 25 32 41 49 54 57 58 60 65 73 83 93 97 94 87 82 79 78 78 79 81 83 86 90 94 98 103 107 111 116 121 126 129 129
47 45 43 42 41 41 41 41 41 41 41 42 42 42 41 41 40 39 38 36 34 31 29 28 26 24 22 20 19 17 16 14 13 12 11 10 9 9 9 8 8 7 7 7 8 8 9 10 11 13 16 19 23 30 38 46 52 55 56 58 61 66 75 85 94 98 95 88 82 79 78 79 80 82 85 88 92 96 101 106 111 117 122 127 129 129
46 44 43 41 41 40 40 41 41 41 41 41 42 42 41 40 40 38 36 34 31 29 27 26 24 22 20 19 17 16 15 14 13 11 11 10 9 9 9 8 7 7 6 6 7 8 8 9 10 12 14 17 22 27 35 44 51 54 55 56 58 62 68 76 85 94 99 96 89 83 80 79 80 81 83 86 90 94 99 105 110 117 123 127 129 129
45 44 42 41 40 40 40 40 40 40 41 41 42 42 41 40 38 36 34 31 29 27 26 24 22 20 19 17 16 15 14 13 12 11 10 10 9 9 8 8 7 6 6 6 6 7 8 8 9 10 12 16 20 25 32 41 49 53 54 55 57 60 64 69 76 85 94 98 96 90 84 81 80 81 82 85 89 94 99 105 110 116 122 127 130 129
44 43 41 40 39 39 39 39 39 40 40 41 41 41 40 39 37 34 31 28 26 25 24 22 20 18 17 16 15 14 13 13 12 11 10 10 9 9 8 8 7 6 6 6 6 7 7 7 8 9 11 14 18 23 29 38 46 51 54 55 56 58 62 66 70 76 84 93 98 97 91 86 83 82 83 84 88 93 99 105 110 116 122 127 130 130
44 42 40 39 38 38 39 39 39 39 40 40 40 40 39 37 34 31 28 26 24 23 22 20 18 17 16 15 14 13 13 12 11 10 10 9 9 9 8 8 7 6 5 5 6 6 7 7 8 9 10 13 16 20 26 33 41 48 53 55 56 57 60 63 66 70 75 83 93 99 98 93 89 86 85 85 88 93 99 105 110 116 122 127 130 130
43 41 39 38 38 38 38 39 39 39 39 39 39 38 36 34 31 29 26 24 23 21 19 18 16 16 15 14 14 13 12 11 10 10 9 9 9 8 8 7 7 6 5 5 6 6 6 7 7 8 10 12 15 18 23 29 37 44 51 53 55 56 58 60 62 65 69 76 85 93 99 99 95 91 88 87 88 92 97 103 109 115 121 127 130 130
41 40 38 38 38 38 38 38 39 38 38 37 37 35 33 31 29 27 25 22 20 18 17 16 15 14 14 13 13 12 11 10 10 9 9 9 8 8 8 7 7 6 5 5 6 6 6 6 7 8 9 11 13 17 21 25 32 39 46 50 53 54 56 57 58 61 65 71 78 86 94 100 100 97 93 90 90 92 96 101 107 114 120 126 129 130
40 39 37 37 37 37 38 38 38 37 36 35 34 33 31 29 27 25 23 20 18 16 15 14 14 13 13 12 12 11 11 10 9 9 8 8 8 8 8 7 7 6 6 6 6 6 6 7 7 8 9 10 12 15 18 23 27 33 40 47 52 54 54 55 56 58 62 67 73 80 88 96 100 100 98 95 93 94 97 102 107 113 120 125 128 130
39 37 36 36 36 37 37 37 37 35 34 33 32 30 28 27 25 23 20 18 15 14 13 13 12 12 12 11 11 10 10 9 9 8 8 8 8 8 7 7 7 6 6 6 6 6 7 7 7 8 9 10 11 14 16 20 24 29 35 42 48 51 52 53 54 56 59 63 69 75 83 90 96 100 101 100 98 97 99 103 107 113 119 126 129 131
37 36 35 35 35 35 36 36 35 34 32 31 29 28 27 25 23 20 18 16 14 13 12 12 11 11 10 10 10 9 9 9 8 8 8 8 8 8 7 7 7 6 6 6 6 7 7 7 7 8 9 10 11 13 15 18 22 26 31 36 41 46 49 51 53 55 58 61 65 70 77 84 90 96 100 102 101 100 100 102 106 111 118 124 129 132
36 35 34 34 34 34 34 34 33 31 30 29 27 26 25 23 21 18 16 14 12 12 11 11 10 10 9 9 9 9 8 8 8 8 8 8 8 8 8 7 7 7 7 7 7 7 7 8 8 8 9 10 11 12 14 17 20 24 28 32 36 41 45 49 51 53 57 60 63 67 72 78 85 91 97 101 103 103 101 101 104 110 116 123 128 132
35 34 33 32 32 33 32 32 31 29 28 26 25 24 23 21 18 16 14 13 12 11 11 11 10 10 10 9 9 9 9 8 8 8 7 7 7 7 7 8 7 7 7 7 7 7 8 8 9 9 9 10 11 12 13 16 18 22 25 29 33 37 41 45 48 51 54 59 63 66 70 75 80 86 92 97 102 104 103 102 103 108 115 122 128 131
34 32 31 31 31 31 31 30 29 27 25 24 23 22 21 18 16 14 13 12 11 11 11 11 10 11 11 11 11 11 10 10 10 9 8 8 8 7 7 7 7 7 7 8 8 8 8 9 9 10 10 11 11 12 13 15 17 20 23 27 31 34 37 40 44 47 51 56 61 66 70 74 78 82 87 93 99 104 105 105 105 107 113 120 126 131
33 31 30 30 29 29 29 28 26 25 23 22 21 19 18 16 14 12 11 10 10 10 10 11 11 12 12 13 13 13 13 13 12 11 11 10 9 8 7 7 7 7 8 8 8 9 9 9 10 10 11 11 12 13 14 15 17 19 22 25 28 31 34 37 40 44 48 53 58 64 69 74 77 80 85 91 98 103 107 107 107 108 112 118 125 131
32 30 29 28 28 28 27 26 24 22 21 20 18 17 15 13 11 10 9 8 9 9 9 10 11 12 13 13 13 13 13 13 13 13 12 12 11 9 8 8 7 7 8 8 9 9 10 10 10 11 11 12 13 14 15 16 17 19 21 24 26 29 32 35 39 42 45 49 54 60 67 72 76 79 84 91 97 103 107 108 109 110 113 118 124 130
31 29 27 26 26 26 25 24 22 20 18 17 16 15 13 11 9 8 7 6 7 7 8 8 9 10 11 12 12 12 12 11 11 11 11 11 11 10 9 8 8 8 8 8 9 9 10 11 11 12 12 13 13 14 15 16 17 19 20 22 25 28 31 34 36 40 43 47 51 57 63 69 74 79 83 89 95 101 106 108 109 110 113 118 124 129
30 28 26 25 24 24 23 22 20 18 16 15 14 13 11 9 8 6 5 4 5 5 6 7 7 8 9 10 11 11 10 10 9 8 9 9 9 9 9 9 9 8 8 9 9 9 10 11 12 12 13 14 14 15 16 17 18 19 20 22 24 27 29 31 34 37 41 44 49 54 59 66 72 77 81 86 92 99 105 108 109 110 112 117 122 128
30 27 25 24 23 22 21 20 18 16 14 13 12 11 10 8 7 5 4 3 3 4 4 5 6 6 7 8 9 10 10 10 9 9 9 10 10 9 9 9 9 9 9 9 9 10 10 11 12 13 14 15 16 16 17 18 18 19 20 22 24 26 28 30 33 36 39 43 47 51 57 63 69 74 79 84 90 97 104 108 110 111 112 116 121 127
30 27 24 23 21 21 20 18 16 14 13 12 11 10 10 8 7 6 4 3 3 3 4 4 5 6 7 8 10 11 12 12 11 11 12 12 11 11 10 9 8 9 9 9 10 10 10 11 12 13 14 15 16 17 18 18 19 20 21 22 24 25 27 30 32 35 38 41 45 50 54 60 65 71 76 82 89 95 102 106 109 111 113 115 120 125
Wind_Direction
323 322 321 319 318 316 315 313 311 310 311 311 312 313 314 314 314 315 315 316 317 318 318 317 316 314 313 312 311 310 308 305 302 299 297 296 296 296 296 295 292 285 273 257 241 230 224 221 220 219 217 214 211 208 204 200 197 195 193 191 188 185 182 181 182 189 199 204 203 201 199 200 201 202 202 199 199 202 203 202 202 202 202 202 200 197
323 322 321 319 318 316 315 313 312 311 312 312 313 314 314 315 315 315 316 317 318 319 319 318 316 314 312 311 310 309 308 305 302 299 297 296 296 296 296 295 292 286 276 261 244 231 224 221 220 219 218 215 212 208 203 199 196 194 192 189 187 184 181 179 179 184 193 199 201 199 198 198 199 200 201 201 201 202 203 203 202 202 202 202 200 197
323 322 321 319 318 316 315 313 312 312 312 313 314 315 315 315 316 316 317 318 319 320 319 318 316 314 312 311 310 309 307 305 303 300 297 296 295 295 295 295 292 288 279 265 248 233 224 220 219 219 218 215 212 207 203 198 195 193 191 189 187 184 181 178 178 182 190 196 198 197 196 196 197 197 198 199 200 201 204 203 203 203 203 202 200 197
323 322 321 319 318 316 315 314 313 313 313 314 315 315 316 316 317 318 319 320 320 320 320 318 316 314 312 310 309 308 307 305 303 300 298 296 295 295 295 294 292 288 281 267 250 235 225 220 219 219 218 216 212 207 202 198 195 193 191 189 187 185 183 180 178 181 188 195 197 197 195 197 197 197 196 197 198 200 200 200 201 202 203 202 200 197
323 322 321 319 318 317 316 315 314 313 314 314 315 316 317 318 318 319 320 321 321 321 320 318 316 314 312 310 309 307 306 305 303 300 298 296 294 294 294 294 292 289 282 269 252 236 225 220 218 219 218 216 212 207 201 197 195 193 192 190 188 187 186 183 180 180 184 193 197 197 196 197 198 197 195 195 198 200 201 200 200 201 202 202 200 197
323 322 321 320 318 317 316 315 315 314 314 315 316 318 319 319 320 321 321 322 322 322 320 319 316 315 313 311 309 307 306 304 303 300 298 295 294 293 293 293 292 289 283 270 253 238 226 220 218 218 218 216 211 206 200 196 195 193 191 189 188 188 188 187 184 181 181 188 194 197 197 197 197 197 195 195 198 201 202 202 201 201 202 202 200 197
324 323 321 320 319 318 316 316 315 315 316 317 318 319 320 321 322 322 323 323 323 322 321 319 317 315 313 311 309 307 305 304 303 301 298 296 294 293 292 292 291 289 284 272 255 239 227 220 218 218 218 215 211 205 199 196 194 193 191 188 187 187 188 189 188 184 182 184 190 195 197 197 196 195 195 197 199 201 202 202 202 202 202 202 199 197
324 324 322 321 319 318 317 316 316 316 317 319 320 321 322 323 323 323 324 324 323 322 321 319 318 316 314 312 310 307 305 304 303 301 299 296 294 292 292 291 291 289 285 275 257 240 228 221 218 218 218 215 210 204 199 195 194 193 191 187 185 185 187 189 190 189 186 186 189 193 196 197 196 195 195 197 200 201 201 201 202 202 203 202 200 196
325 324 323 321 319 318 317 317 317 318 319 321 322 323 323 324 324 324 324 324 324 323 322 320 319 318 316 314 311 308 306 305 304 302 300 297 294 292 291 291 290 289 286 277 261 242 229 222 219 218 217 214 209 203 198 194 193 192 190 186 183 183 185 188 190 191 190 190 191 193 195 196 196 196 196 198 200 201 201 202 202 203 203 202 199 196
326 325 323 322 320 318 317 318 319 320 321 322 323 324 325 325 325 325 325 325 324 323 323 322 321 320 318 316 313 310 307 306 305 304 302 299 296 293 291 290 289 288 286 279 265 246 232 223 220 219 217 214 209 203 197 193 191 191 190 186 183 181 182 184 188 190 191 192 193 193 194 194 195 196 197 199 200 200 200 201 202 202 202 201 198 195
326 325 324 322 321 319 319 319 320 321 323 324 325 325 326 326 326 326 325 325 324 324 323 323 322 320 319 317 314 311 308 307 306 305 303 300 297 294 291 289 288 287 285 281 269 251 235 225 221 219 217 213 208 203 197 193 191 190 190 187 184 181 180 182 185 187 188 190 191 192 193 193 193 195 198 200 200 200 200 201 202 202 202 200 198 195
327 326 325 323 322 321 321 321 322 324 325 326 327 327 328 327 327 325 324 324 324 324 323 323 322 320 319 317 314 311 309 308 307 306 304 302 298 295 292 290 288 287 285 281 273 257 239 227 222 219 217 213 208 202 197 193 191 190 191 189 186 183 181 182 183 183 183 184 185 188 190 191 192 195 198 200 200 200 200 201 202 202 201 200 198 195
327 327 325 324 323 323 323 324 325 326 327 328 328 328 327 326 325 324 323 323 323 323 322 322 321 320 318 316 314 311 310 309 308 307 305 303 300 296 293 290 288 286 284 281 275 262 245 231 223 220 217 214 209 203 197 193 191 190 191 190 188 186 184 183 182 181 180 179 180 182 185 188 191 194 198 201 201 201 201 201 202 202 202 200 198 195
328 328 327 326 325 325 325 326 327 327 328 328 327 326 325 325 324 323 322 322 322 322 322 322 321 320 318 316 314 311 310 309 309 308 306 304 301 298 294 291 289 286 284 281 276 266 251 235 225 221 218 214 209 203 198 194 191 190 191 191 190 188 187 185 183 181 179 178 177 178 181 184 188 192 197 200 201 200 200 201 202 202 202 200 198 195
329 328 327 327 326 326 326 326 327 327 327 327 326 325 324 323 322 322 322 322 322 322 322 322 321 320 319 317 314 311 310 309 309 309 307 304 301 298 295 292 289 287 285 281 277 269 256 240 228 222 218 214 210 204 199 194 192 190 190 191 190 190 189 187 185 182 179 177 176 176 178 180 184 188 193 198 201 201 199 200 201 201 201 200 198 195
329 328 327 327 326 326 326 326 326 327 327 326 325 324 323 322 322 322 322 322 322 322 322 322 321 320 319 317 314 312 310 309 309 308 307 304 301 298 295 293 290 288 285 282 278 271 261 246 232 224 219 215 210 205 200 195 192 191 191 191 190 190 191 191 188 184 180 178 176 176 177 178 180 182 186 192 199 201 200 200 200 201 201 200 198 195
329 328 327 326 326 326 326 326 326 326 326 325 324 323 322 322 322 322 323 323 323 323 323 323 322 321 319 317 315 312 310 309 309 308 307 304 301 297 295 293 291 288 286 283 279 273 264 251 236 226 219 215 210 206 201 197 194 192 192 191 190 190 192 194 192 188 184 180 178 177 176 177 177 179 181 185 193 200 202 201 200 200 200 200 198 195
329 328 327 326 326 326 327 327 326 326 325 324 323 322 322 322 323 323 324 324 324 324 324 324 323 321 319 317 315 313 311 309 309 308 307 304 301 298 295 293 291 289 286 283 279 274 266 255 241 229 220 215 210 206 202 198 196 195 194 192 190 189 191 195 196 193 189 185 182 179 177 177 177 178 179 181 187 195 200 201 200 200 200 199 198 195
329 328 327 326 326 327 327 326 326 325 324 323 323 323 323 323 324 324 325 325 325 325 325 325 324 322 319 317 316 314 312 310 309 309 307 305 301 298 295 293 291 289 286 283 280 275 268 258 245 231 222 215 210 206 202 199 197 196 196 193 189 188 189 193 197 197 194 191 188 184 181 180 179 179 179 181 184 190 196 199 200 200 200 199 197 195
328 328 328 327 327 327 327 326 325 324 323 323 323 323 323 324 325 325 326 326 327 327 327 326 325 323 320 318 317 315 313 312 310 309 308 305 301 297 294 292 291 289 287 284 280 275 269 260 248 235 223 215 209 205 202 199 198 197 196 192 189 187 187 190 194 197 197 196 193 190 187 184 183 181 182 183 185 188 192 197 199 199 199 199 197 194
329 329 328 327 327 326 326 325 324 323 323 323 324 324 324 325 326 326 327 327 328 329 329 329 327 324 322 319 318 316 315 313 311 310 309 306 302 297 293 292 291 290 287 283 280 275 270 261 250 237 225 216 209 204 201 199 198 197 196 192 189 187 187 187 191 195 198 198 197 195 193 190 187 185 185 185 187 189 192 195 197 198 199 198 197 195
329 329 328 327 326 325 324 324 324 324 324 324 325 325 325 326 327 327 328 329 330 331 332 331 329 326 323 320 318 317 315 314 312 311 310 307 303 297 294 292 291 290 287 283 279 275 270 263 252 240 227 217 209 204 201 199 198 197 196 192 189 188 187 186 188 191 196 199 199 198 196 194 192 189 188 188 189 190 192 194 195 197 198 197 196 194
329 329 328 327 326 324 324 324 324 324 325 325 325 326 326 327 327 328 328 329 330 332 332 331 329 326 323 321 319 318 316 315 314 313 311 308 304 298 294 293 292 290 287 283 279 276 271 264 254 242 229 218 210 204 200 198 197 197 195 192 190 188 187 186 186 188 192 196 199 199 199 197 195 193 191 191 191 192 192 193 194 196 196 196 195 194
329 329 328 327 325 324 324 324 325 326 326 326 327 327 327 328 328 328 328 329 330 332 332 331 329 327 324 322 320 318 316 315 315 314 313 310 305 299 296 294 293 290 287 283 280 276 271 265 255 243 230 219 210 205 201 198 196 196 195 192 190 189 187 186 185 186 189 193 197 199 200 199 198 196 195 194 193 193 194 194 194 195 195 195 194 193
330 329 327 326 325 324 324 325 325 326 327 327 328 328 328 329 329 329 328 329 330 331 332 331 330 327 325 322 320 318 317 316 316 315 314 312 308 302 297 295 293 291 288 284 281 277 272 265 256 244 231 219 210 205 201 198 196 195 194 192 191 189 187 186 184 184 186 190 194 197 199 200 200 199 198 197 196 196 195 194 194 194 195 194 194 192
330 328 326 325 324 324 324 325 326 326 327 328 328 329 330 330 329 329 328 329 330 332 332 331 330 328 326 323 321 319 318 317 317 318 317 315 310 304 298 295 294 292 288 284 281 277 272 266 257 245 231 220 211 205 201 198 195 194 194 193 191 189 188 186 184 184 184 186 190 194 197 200 201 201 201 200 199 198 197 195 194 194 194 194 193 192
329 327 325 324 323 323 323 324 325 327 328 329 330 330 331 331 330 329 328 329 329 330 331 330 329 328 327 325 323 321 320 320 320 321 320 317 312 306 300 297 295 292 288 284 280 277 271 266 257 246 232 220 211 206 201 198 195 193 193 193 192 190 188 186 185 183 183 184 187 190 194 197 200 201 202 202 201 200 199 196 194 193 194 193 192 191
327 326 324 323 322 322 323 324 326 328 330 331 331 332 332 331 330 329 328 327 328 328 329 329 329 329 328 327 325 323 322 323 324 324 323 319 313 308 301 298 296 292 288 283 279 275 270 265 257 247 234 222 213 206 202 198 195 193 192 193 192 191 189 187 185 184 183 183 184 186 190 194 197 200 202 203 203 202 201 197 195 193 193 193 192 191
327 326 324 323 322 322 323 326 328 330 332 332 332 332 332 331 330 328 327 326 326 326 326 327 328 329 329 328 327 326 325 326 328 328 325 321 316 309 302 299 296 292 287 282 277 273 268 263 257 247 236 223 214 208 203 199 195 193 192 192 193 192 191 189 187 185 184 183 182 184 186 190 194 197 200 202 203 203 202 199 196 194 193 193 192 191
328 327 325 323 323 324 325 328 331 332 332 332 332 332 331 330 329 328 326 326 325 325 325 327 329 330 330 330 329 329 329 330 331 331 327 323 317 311 304 301 297 292 286 281 276 272 267 262 256 247 237 225 216 209 204 200 197 193 192 192 192 193 193 191 189 186 184 183 182 183 184 187 190 193 196 199 201 202 203 201 198 195 193 192 191 191
328 327 325 324 324 326 329 331 332 333 332 331 331 331 331 330 328 327 326 325 325 325 325 327 329 331 331 332 331 331 332 334 334 332 328 324 318 312 306 302 298 292 286 279 274 270 267 263 256 248 237 226 217 210 205 201 198 195 192 192 192 193 194 193 191 189 186 184 183 183 184 186 188 191 194 196 198 200 202 201 198 196 194 192 191 190
328 327 326 325 326 329 331 333 333 332 331 330 330 330 330 329 328 327 327 326 326 326 327 329 330 331 332 333 334 334 335 336 336 333 328 324 318 312 306 303 298 293 286 277 270 266 264 262 256 248 238 228 219 212 206 202 199 196 193 192 192 193 194 194 193 191 189 186 185 185 185 186 187 189 192 194 196 198 200 200 199 196 194 192 191 190
328 327 327 327 329 331 332 333 332 331 330 330 330 331 331 330 329 328 328 328 328 329 329 330 332 333 334 335 336 337 338 338 337 334 328 323 318 313 308 304 300 294 287 277 269 263 261 259 256 249 239 229 220 213 208 203 200 198 195 193 192 192 193 195 195 194 192 190 188 187 187 187 188 189 191 193 194 196 198 199 198 196 194 192 190 189
328 328 328 330 331 333 333 332 332 331 330 331 331 331 331 331 330 330 330 331 331 331 331 332 333 334 336 337 338 340 340 340 338 335 329 323 319 315 311 307 303 298 289 280 270 263 260 257 255 249 241 231 222 214 209 205 202 199 196 194 192 191 192 194 195 196 195 194 191 190 189 189 189 190 191 192 193 195 196 197 197 196 194 192 190 189
329 329 330 331 333 333 333 332 332 331 331 332 332 333 332 332 332 332 333 333 333 333 333 334 335 337 338 339 341 342 343 343 341 336 330 325 321 317 315 312 308 301 294 284 274 266 260 256 252 247 240 232 224 216 210 206 203 201 199 196 194 192 191 192 194 196 197 197 195 194 193 192 192 192 192 192 193 194 195 196 196 195 194 192 190 189
329 330 331 332 333 333 333 333 332 332 332 333 333 334 334 333 333 334 335 336 335 335 335 336 338 340 342 343 344 345 346 346 343 339 333 328 323 320 318 316 312 305 297 288 279 270 262 256 250 245 238 232 225 218 212 208 205 203 201 199 196 194 193 193 194 196 197 198 198 197 196 195 195 194 193 193 193 194 195 195 195 195 193 192 190 188
330 331 332 333 334 334 334 334 333 334 334 334 335 335 335 335 336 337 338 339 338 337 338 340 342 345 347 348 348 349 349 349 347 343 337 331 326 324 321 319 315 309 300 291 283 274 265 257 250 243 237 231 225 220 214 210 207 205 204 202 200 198 196 196 196 196 197 198 199 199 199 198 198 196 195 194 193 194 194 194 194 194 193 191 190 188
331 332 333 334 334 335 335 335 335 335 336 336 337 337 337 338 339 340 341 341 340 340 341 344 347 350 351 352 352 353 353 353 351 347 341 335 330 327 324 322 318 311 300 291 283 275 267 258 250 243 236 231 226 221 216 211 208 207 206 205 203 202 200 199 198 198 197 198 198 199 200 200 199 198 197 195 194 193 193 194 194 193 193 191 189 188
332 332 333 334 335 336 336 336 336 337 337 338 339 339 339 340 342 343 344 343 343 343 346 349 352 354 355 355 356 357 357 357 354 350 344 339 334 330 326 323 319 312 301 291 281 274 267 259 251 243 237 231 226 221 217 213 210 208 207 207 206 205 204 202 200 199 198 198 198 199 200 201 201 200 199 197 195 193 193 193 193 193 192 191 189 188
332 333 334 335 336 337 337 337 337 338 339 340 341 341 342 343 344 345 345 345 346 348 351 354 356 357 357 359 0 1 1 360 356 352 347 341 337 332 328 324 319 312 302 290 280 273 267 259 251 245 239 233 227 222 217 214 211 209 208 208 207 207 206 205 203 201 199 198 198 199 200 201 202 202 201 199 196 194 193 193 193 193 192 191 189 188
333 334 335 336 337 338 338 338 338 339 341 342 343 343 345 346 346 346 345 346 348 352 355 357 357 358 360 2 4 5 5 3 359 354 348 342 338 333 329 323 318 310 301 290 280 271 265 258 251 245 240 235 229 223 219 215 212 209 208 208 208 208 207 206 204 202 200 199 199 199 200 201 202 202 202 200 198 195 193 192 193 193 192 190 189 188
334 335 336 337 338 338 338 339 339 340 342 344 345 346 347 347 347 347 346 347 350 354 356 357 358 360 3 5 8 10 10 7 2 356 349 344 339 335 330 324 318 310 300 289 280 271 264 257 250 244 240 235 230 225 220 216 213 210 209 209 209 208 208 208 206 203 202 200 199 199 199 200 201 202 202 202 199 196 194 193 192 192 192 191 189 188
335 335 336 337 338 339 339 339 340 341 343 345 347 348 349 348 348 347 347 348 352 355 357 358 359 2 6 11 14 15 14 11 6 359 352 345 341 336 332 326 319 311 300 290 280 271 263 256 249 243 238 234 230 227 222 218 214 211 209 209 208 208 208 208 207 204 202 201 199 199 199 200 201 201 202 202 200 198 195 194 193 192 192 191 189 188
335 336 337 338 339 339 340 340 340 342 344 346 348 349 349 349 348 348 349 351 354 358 0 2 4 8 12 17 21 22 21 17 11 3 355 348 342 338 333 326 319 311 301 291 282 273 265 256 249 242 237 233 231 228 225 220 216 212 210 208 207 207 207 207 206 205 203 202 200 199 199 199 200 201 201 201 201 199 197 195 193 193 192 191 190 189
336 336 337 338 339 340 340 340 341 343 345 347 349 350 349 349 349 350 352 355 359 4 7 11 14 17 20 24 26 27 25 21 15 8 360 351 344 338 333 326 318 310 300 290 281 273 265 257 250 242 236 233 230 228 226 222 218 215 211 209 208 207 207 207 206 205 204 202 201 200 199 199 199 200 200 200 200 199 198 196 194 193 192 191 190 189
337 336 337 338 339 340 341 341 342 343 345 348 349 350 349 348 349 352 357 2 9 14 19 23 24 24 24 25 25 25 23 20 15 8 1 354 347 340 333 324 316 307 299 290 281 273 265 258 249 242 236 233 230 228 226 223 220 217 213 210 209 208 208 207 206 205 204 202 201 200 200 199 199 199 199 199 199 198 198 196 195 194 192 191 190 189
337 336 336 337 339 340 341 341 342 343 346 347 349 348 347 346 347 352 0 10 18 24 27 27 26 23 21 19 17 16 15 13 9 3 357 352 347 340 332 323 313 304 295 287 280 272 265 258 250 242 236 232 230 229 227 224 221 218 215 212 210 208 207 206 205 204 203 202 201 201 200 200 199 198 198 198 198 198 197 197 195 194 192 191 190 189
337 336 336 337 338 339 340 341 342 344 345 347 347 346 344 342 342 348 1 14 23 26 25 23 21 18 15 12 9 7 5 4 1 356 350 345 341 335 328 318 309 299 290 282 276 270 264 258 251 243 237 232 229 228 226 224 222 219 217 213 211 209 208 206 205 204 203 202 201 200 199 199 199 198 198 198 198 198 197 197 196 194 193 191 190 189
337 336 336 337 337 338 339 340 342 343 345 345 343 341 338 335 335 340 355 10 19 18 15 13 11 11 10 7 4 0 356 353 349 343 339 335 331 325 318 310 302 293 285 277 271 266 261 256 251 245 238 232 229 227 226 224 222 220 217 214 212 211 209 208 206 204 203 202 200 199 198 197 197 198 197 197 197 197 197 197 196 195 193 191 190 189
337 336 336 335 336 336 337 339 340 342 342 340 337 333 327 323 321 322 332 347 359 1 358 353 351 352 355 357 356 354 349 343 336 331 328 328 326 320 313 305 297 288 281 273 267 261 257 253 249 244 239 233 229 226 225 223 222 220 218 216 213 211 210 208 206 204 203 202 200 198 196 196 196 196 196 196 196 197 197 197 196 195 193 192 190 189
336 336 335 334 334 334 334 336 337 338 337 334 329 322 316 307 301 297 297 302 313 322 325 322 315 314 320 331 340 345 345 340 333 326 323 324 326 325 321 314 303 291 281 273 266 259 253 250 247 244 240 234 230 226 224 222 221 220 219 217 214 212 210 208 206 205 203 202 199 197 195 194 194 194 194 195 195 196 197 196 196 195 194 192 191 190